User: anonymous   Login
Location: Bli��� Lhota
(48.7570°N, 14.0120°E)
Time: 17:12:55
(UTC+00:00)
Language:

ERS-1 Rocket - Orbit

View from above orbital plane
View from above orbital plane
View from above satellite
View from above satellite

Ground track
Ground track

The orbit data is extracted from the following two-line orbital elements,

1 21610U 91050F   20334.45766113  .00000065  00000-0  33933-4 0  9996
2 21610  98.4491  41.9052 0004272 117.8967 252.5449 14.40923770541741
Epoch (UTC): 29 November 2020 10:59:01
Eccentricity: 0.0004272
inclination: 98.4491°
perigee height: 752 km
apogee height: 758 km
right ascension of ascending node: 41.9052°
argument of perigee: 117.8967°
revolutions per day: 14.40923770
mean anomaly at epoch: 252.5449°
orbit number at epoch: 54174

The dashed part of the orbit path shows where the satellite is in the earth's shadow,  

DLR